Simultaneous Nadir Overpasses (SNOs) Predictions

Prediction of SNOs between GOES-15 and METOP-A Satellite Orbit:

Table of predicted SNOs for the next 14.0 days since TLE Epoch: 9/25/2015
Index Date Time (GOES-15) GOES-15 Lat,Lon METOP-A Lat,Lon Distance(km) Time Diff (sec)
1 09/25/2015 18:38:10 -0.31,-135.26 0.28,-137.75 284.16 80
2 09/26/2015 18:20:11 -0.30,-135.25 -0.87,-132.76 283.89 80
3 09/28/2015 06:36:30 0.31,-135.16 -0.15,-137.36 249.87 80
4 09/29/2015 06:18:29 0.30,-135.15 0.94,-132.36 317.73 80
5 09/30/2015 18:34:41 -0.31,-135.18 0.05,-136.93 198.40 80
6 10/01/2015 18:16:40 -0.30,-135.17 -1.05,-131.93 368.97 80
7 10/03/2015 06:32:59 0.31,-135.07 -0.03,-136.52 165.62 80
8 10/04/2015 06:14:58 0.30,-135.05 1.06,-131.52 401.29 80
9 10/05/2015 18:31:09
